THOR ABLESTAR R/B, 59

Orbit data source: Space-Track

THOR ABLESTAR R/B, 59 is space debris in LEO originally from a launch on Tue, 04 Oct 1960 UTC launched from the Air Force Eastern Test Range (AFETR). Debris objects in space refer to the collection of defunct objects orbiting the Earth. Examples of debris include non-operational satellites, rocket bodies, and fragments generated from explosions, collisions, or faulty payload assembly.

Loading next visibility...
Identifier
59, 1960-013B
Orbit
LEO
Country
Flag of USUS
Related business
Manufacturer
Aerojet
Mission
Spacecraft
Bus & Motor
ABLESTAR, Unknown motor
Mass
600 kg wet, 600 kg dry
Launch date (UTC)
1960-10-04 (65 years ago)
Launch vehicle
Unknown
Launch site
Air Force Eastern Test Range (AFETR)
Object type
Payload
Rocket body
Debris
Shape & HBR
Cyl, 2.4 m
Radar Cross Section
6.048 m², Large (>1 m²)

Expand to show TLE details & history
Last TLE update: 1 day ago

TLE from 1 day ago
0 THOR ABLESTAR R/B
1 00059U 60013B   25259.80997872  .00000127  00000-0  48015-4 0  9999
2 00059  28.2484  88.2290 0188963 180.6667 179.3641 13.53146187206112
Epoch: 2025-09-16T19:26Z
TLE epoch observation values (Epoch: 2025-09-16T19:26:22.161Z)
Latitude
0.00001°
Longitude
160.64174°
Altitude
1,199.597 km
Speed
7.188 km/s
True Right ascension
05h 52m 54s
True Declination
0° 00' 00"
Sunlit
Object was in daylight at epoch
Visualization orbit readout
Latitude
Unknown
Longitude
Unknown
Altitude
Unknown
Speed
Unknown
Apparent Right ascension
Unknown
Apparent Declination
Unknown
Sunlit
N/A
Visualization observer readout
Local Sidereal Time
19:10:40
Azimuth
Unknown
Elevation
Unknown
Doppler factor
Unknown
Orbital elements
Apogee altitude
1,205.286 km
Perigee altitude
924.004 km
Semi-major axis
7,442.782 km
Eccentricity
0.0189
Inclination
28.2484°
RAAN
88.229°
Arg. of periapsis
180.6667°
True anomaly
179.38758°
Mean anomaly
179.3641°
Eccentric anomaly
179.37589°
Mean motion
3.38018 °/min
Orbital period
106.5 mins
BSTAR
0.000048015
Loading maneuver chart data...
Computing Atmospheric mass density...
Loading historical data...
Loading historical data...
Loading historical data...
Loading historical data...
Loading historical data...
Loading historical data...
Loading historical data...
Other satellites on launch #13 in the year 1960 (1960-10-04 UTC)

Documentation

Showing up to 5 results
|